Simultaneous Nadir Overpasses (SNOs) Predictions

Prediction of SNOs between LANDSAT-8 and NPP Satellite Orbit:

Table of predicted SNOs for the next 14.0 days since TLE Epoch: 6/1/2018
Index Date (LANDSAT-8) Time (LANDSAT-8) Lat,Lon (LANDSAT-8) SZA (LANDSAT-8 ) Date (NPP) Time (NPP) Lat,Lon (NPP) SZA (NPP ) Distance(km) Time Diff (sec)
1 06/02/2018 06:07:42 70.21, 84.42 47.95 06/02/2018 06:06:58 70.22, 84.37 47.97 2.16 44
2 06/02/2018 06:57:12 -70.10,-108.11 132.16 06/02/2018 06:57:39 -70.08,-108.10 132.18 1.31 27
3 06/04/2018 21:34:30 -71.05, 33.93 131.55 06/04/2018 21:33:23 -71.07, 31.46 131.46 89.34 67
4 06/04/2018 22:24:11 70.18,-159.73 47.60 06/04/2018 22:23:52 70.16,-159.77 47.59 2.52 19
5 06/04/2018 23:13:41 -70.07, 7.75 132.51 06/04/2018 23:14:34 -70.08, 7.68 132.50 2.70 53
6 06/07/2018 13:51:13 -70.20, 148.54 132.65 06/07/2018 13:50:01 -70.23, 148.60 132.62 3.42 72
7 06/07/2018 14:40:40 70.09, -43.97 47.25 06/07/2018 14:40:45 70.10, -43.91 47.26 2.86 5
8 06/07/2018 15:30:12 -69.88, 123.36 132.97 06/07/2018 15:31:24 -69.86, 123.78 133.00 16.04 72
9 06/10/2018 06:07:42 -70.17, -95.62 132.91 06/10/2018 06:06:55 -70.17, -95.54 132.90 2.92 47
10 06/10/2018 06:57:08 70.11, 71.94 47.04 06/10/2018 06:57:40 70.10, 71.87 47.03 2.82 32
11 06/12/2018 21:34:29 70.88,-146.30 47.61 06/12/2018 21:33:21 70.94,-148.33 47.74 74.15 68
12 06/12/2018 22:24:10 -70.18, 20.29 133.07 06/12/2018 22:23:50 -70.17, 20.23 133.08 2.50 20
13 06/12/2018 23:13:37 70.06,-172.23 46.82 06/12/2018 23:14:34 70.05,-172.28 46.80 2.15 57
14 06/15/2018 13:51:09 70.23, -31.38 46.86 06/15/2018 13:50:02 70.21, -31.37 46.84 2.60 67
15 06/15/2018 14:40:39 -70.13, 136.11 133.24 06/15/2018 14:40:44 -70.12, 136.09 133.26 2.15 5
16 06/15/2018 15:30:12 69.68, -56.87 46.33 06/15/2018 15:31:22 69.68, -55.95 46.29 35.45 70




NCC Satellite Simultaneous Nadir Overpasses (SNOs) Prediction Service
